Hourly Data Report for October 06, 2017

All times are specified in Local Standard Time (LST). Add 1 hour to adjust for Daylight Saving Time where and when it is observed.

HOLMAN CS
NORTHWEST TERRITORIES

70°45'41.002" N
117°48'00.002" W
29.90 m
2502505
71029
XHI

Download Data

Hourly Data (October 2017)
Hourly Data Report for October 6, 2017
Temp Definition
°C
Dew Point Temp Definition
°C
Rel Hum Definition
%
Wind Dir Definition
10's deg

Wind Spd Definition
km/h
Visibility Definition
km
Stn Press Definition
kPa
Hmdx Definition


Wind Chill Definition


Weather Definition


TIME
00:00 -3.9 -5.2 91 13 19   100.01   -10 LegendNANA
01:00 -4.6 -5.8 91 12 26   100.01   -12 LegendNANA
02:00 -5.3 -6.5 91 11 28   100.00   -13 LegendNANA
03:00 -7.0 -9.0 85 11 25   99.98   -15 LegendNANA
04:00 -6.0 -7.5 90 10 20   99.97   -13 LegendNANA
05:00 -6.0 -7.6 89 11 18   99.96   -12 LegendNANA
06:00 -7.5 -9.0 89 10 15   99.92   -14 LegendNANA
07:00 -6.0 -7.4 90 11 18   99.88   -12 LegendNANA
08:00 -6.0 -7.9 87 12 25   99.86   -14 LegendNANA
09:00 -5.9 -7.6 88 13 21   99.88   -13 LegendNANA
10:00 -5.8 -7.4 88 10 22   99.89   -13 LegendNANA
11:00 -5.1 -6.8 87 11 31   99.87   -13 LegendNANA
12:00 -4.7 -6.3 89 15 15   99.92   -10 LegendNANA
13:00 -4.3 -5.8 89 11 32   99.91   -12 LegendNANA
14:00 -4.0 -5.0 93 11 22   99.96   -11 LegendNANA
15:00 -3.7 -4.8 92 11 23   99.99   -10 LegendNANA
16:00 -3.2 -4.3 92 11 23   100.01   -10 LegendNANA
17:00 -2.9 -4.1 91 11 23   100.07   -9 LegendNANA
18:00 -2.6 -4.2 88 11 22   100.09   -9 LegendNANA
19:00 -2.5 -4.5 87 11 22   100.12   -9 LegendNANA
20:00 -2.6 -4.2 89 11 24   100.14   -9 LegendNANA
21:00 -2.3 -3.6 91 10 21   100.17   -8 LegendNANA
22:00 -2.5 -3.6 92 11 25   100.22   -9 LegendNANA
23:00 -3.0 -4.3 91 11 23   100.27   -9 LegendNANA

Notes on Data Quality.

Legend

  • E = Estimated
  • M = Missing
  • NA = Not Available
  • ‡ = Partner data that is not subject to review by the National Climate Archives
Date modified: